Home > Weather > Farsund > Past weeks

Flag for Norway Weather for the Past 2 Weeks in Farsund, Norway

Now
33 °F

Chilly.


Feels Like: 33 °F
Forecast: 20 / 33 °F
Wind: 2 mph from Northwest

Location: Lista Fyr

Current Time: Feb 14, 2016 at 4:54:28 PM

Latest Report: Feb 14, 2016 at 4:00 PM


Visibility: N/A

Pressure: 29.63 "Hg

Humidity: 57%

Dew point: 19 °F

Location of FarsundLocation

Historic Weather in Farsund — Graph

°F

Farsund Temperature Yesterday

Maximum temperature yesterday: 35 °F (at 1:00 PM)
Minimum temperature yesterday: 21 °F (at 5:00 AM)
Average temperature yesterday: 28 °F

High & Low Weather Summary for the Past Weeks

 TemperatureHumidityPressure
High47 °F (Feb 1, 3:00 PM)100% (Jan 31, 5:00 PM)30.03 "Hg (Jan 31, 5:00 PM)
Low21 °F (Feb 13, 5:00 AM)35% (Feb 12, 5:00 PM)28.64 "Hg (Feb 8, 8:00 AM)
Average38 °F81%29.34 "Hg
* Reported Jan 30 3:00 PM — Feb 14 3:00 PM, Farsund, Weather by CustomWeather, © 2016

Note: Actual official high and low records may vary slightly from our data, if they occured in-between our weather recording intervals... More about our weather records

Advertising

Farsund Weather History for the Previous 24 Hours

 ConditionsComfort  
Time TempWeatherWind HumidityBarometerVisibility
3:00 PM
Sun, Feb 14
34 °FChilly.2 mph58%29.63 "HgN/A
2:00 PM34 °FChilly.1 mph59%29.62 "HgN/A
1:00 PM35 °FPassing clouds.1 mph50%29.61 "Hg25 mi
12:00 PM34 °FChilly.3 mph56%29.60 "HgN/A
11:00 AM33 °FChilly.3 mph64%29.58 "HgN/A
10:00 AM29 °FPassing clouds.3 mph75%29.56 "Hg25 mi
9:00 AM26 °FChilly.3 mph78%29.54 "HgN/A
8:00 AM24 °FCold.3 mph81%29.50 "HgN/A
7:00 AM24 °FPassing clouds.3 mph82%29.50 "Hg25 mi
6:00 AM24 °FCold.2 mph83%29.50 "HgN/A
5:00 AM25 °FCold.2 mph82%29.47 "HgN/A
4:00 AM25 °FChilly.2 mph82%29.47 "HgN/A
3:00 AM26 °FChilly.3 mph83%29.47 "HgN/A
2:00 AM26 °FChilly.2 mph84%29.47 "HgN/A
1:00 AM26 °FChilly.3 mph83%29.47 "HgN/A
10:00 PM
Sat, Feb 13
28 °FChilly.6 mph79%29.44 "HgN/A
9:00 PM27 °FChilly.5 mph79%29.44 "HgN/A
8:00 PM27 °FChilly.6 mph77%29.44 "HgN/A
7:00 PM28 °FChilly.6 mph79%29.44 "HgN/A
6:00 PM29 °FChilly.5 mph78%29.44 "HgN/A
5:00 PM30 °FChilly.5 mph77%29.44 "HgN/A
4:00 PM34 °FChilly.6 mph68%29.44 "HgN/A
Weather by CustomWeather, © 2016

See weather overviewHow to use our weather pages